KI6AOK Weather Reports


time (UTC)temp
F
wind
direction
speed
knots
gust
knots
rain 1hr
in
rain 24hr
in
rain mn
in
humidity
%
barometer
mb
20260507145655 58 336 0.0 0.0 0.00 0.00 0.00 87 1016.8
20260507145152 57 12 0.0 0.0 0.00 0.00 0.00 89 1016.7
20260507144649 56 35 0.0 1.7 0.00 0.00 0.00 91 1016.7
20260507144147 56 6 0.0 0.9 0.00 0.00 0.00 92 1016.7
20260507143643 55 24 0.0 2.6 0.00 0.00 0.00 92 1016.7
20260507143141 55 36 0.9 1.7 0.00 0.00 0.00 93 1016.5
20260507142636 55 55 1.7 2.6 0.00 0.00 0.00 92 1016.5
20260507142133 55 33 0.9 0.9 0.00 0.00 0.00 91 1016.4
20260507141629 55 50 0.9 3.5 0.00 0.00 0.00 90 1016.6
20260507141126 55 68 1.7 3.5 0.00 0.00 0.00 89 1016.6
20260507140622 55 51 1.7 1.7 0.00 0.00 0.00 88 1016.5
20260507140120 54 30 0.9 1.7 0.00 0.00 0.00 88 1016.3
20260507135617 54 19 0.9 1.7 0.00 0.00 0.00 87 1016.3
20260507135115 54 66 1.7 1.7 0.00 0.00 0.00 87 1016.5
20260507134610 53 32 0.9 1.7 0.00 0.00 0.00 88 1016.4
20260507134107 53 60 1.7 2.6 0.00 0.00 0.00 89 1016.2
20260507133603 53 56 1.7 2.6 0.00 0.00 0.00 90 1016.4
20260507133101 52 39 0.0 1.7 0.00 0.00 0.00 91 1016.2
20260507132557 52 295 0.0 0.0 0.00 0.00 0.00 92 1016.2
20260507132054 51 295 0.0 0.0 0.00 0.00 0.00 93 1016.2
20260507131551 51 295 0.0 0.0 0.00 0.00 0.00 93 1016.3
20260507131048 51 295 0.0 0.0 0.00 0.00 0.00 93 1016.3
20260507130544 51 295 0.0 0.0 0.00 0.00 0.00 93 1016.3
20260507130043 51 295 0.0 0.0 0.00 0.00 0.00 93 1016.1
20260507125541 51 295 0.0 0.0 0.00 0.00 0.00 93 1016.0
20260507125038 51 295 0.0 0.0 0.00 0.00 0.00 93 1016.0
20260507124534 51 295 0.0 0.0 0.00 0.00 0.00 92 1015.9
20260507124032 51 295 0.0 0.0 0.00 0.00 0.00 92 1016.0
20260507123530 51 295 0.0 0.0 0.00 0.00 0.00 92 1015.8
20260507123027 51 295 0.0 0.0 0.00 0.00 0.00 93 1016.0
20260507122522 51 295 0.0 0.0 0.00 0.00 0.00 92 1015.8
20260507122018 51 295 0.0 0.9 0.00 0.00 0.00 93 1015.8
20260507121514 51 295 0.0 0.0 0.00 0.00 0.00 92 1015.9
20260507121010 51 295 0.0 0.0 0.00 0.00 0.00 92 1015.8
20260507120506 51 295 0.0 0.0 0.00 0.00 0.00 92 1015.7
20260507120004 51 295 0.0 0.0 0.00 0.00 0.00 92 1016.0
20260507115459 51 295 0.0 0.0 0.00 0.00 0.00 92 1015.9
20260507114955 51 295 0.0 0.0 0.00 0.00 0.00 92 1015.7
20260507114451 51 295 0.0 0.0 0.00 0.00 0.00 92 1016.0
20260507113949 51 295 0.0 0.0 0.00 0.00 0.00 92 1015.9
20260507113446 51 295 0.0 0.0 0.00 0.00 0.00 92 1015.8
20260507112943 51 295 0.0 0.0 0.00 0.00 0.00 92 1015.9
20260507112441 51 295 0.0 0.0 0.00 0.00 0.00 92 1015.8
20260507111937 51 295 0.0 0.0 0.00 0.00 0.00 92 1015.8
20260507111435 51 295 0.0 0.0 0.00 0.00 0.00 92 1015.8
20260507110931 52 295 0.0 0.0 0.00 0.00 0.00 92 1016.1
20260507110427 52 295 0.0 0.0 0.00 0.00 0.00 92 1016.0
20260507105924 52 295 0.0 0.0 0.00 0.00 0.00 92 1016.2
20260507105421 52 295 0.0 0.0 0.00 0.00 0.00 92 1016.1
20260507104917 52 295 0.0 0.0 0.00 0.00 0.00 92 1016.0
20260507104414 52 295 0.0 0.0 0.00 0.00 0.00 92 1016.2
20260507103910 52 295 0.0 0.0 0.00 0.00 0.00 91 1016.1
20260507103407 52 295 0.0 0.0 0.00 0.00 0.00 91 1016.1
20260507102903 52 295 0.0 0.0 0.00 0.00 0.00 91 1016.2
20260507102400 52 295 0.0 0.0 0.00 0.00 0.00 91 1016.2
20260507101856 52 295 0.0 0.0 0.00 0.00 0.00 91 1016.1
20260507101356 52 295 0.0 0.0 0.00 0.00 0.00 91 1016.2
20260507100854 52 295 0.0 0.0 0.00 0.00 0.00 91 1016.2
20260507100351 52 295 0.0 0.0 0.00 0.00 0.00 91 1016.1
20260507095849 53 295 0.0 0.0 0.00 0.00 0.00 91 1016.3
20260507095345 53 295 0.0 0.0 0.00 0.00 0.00 91 1016.3
20260507094843 53 295 0.0 0.0 0.00 0.00 0.00 90 1016.3
20260507094339 53 295 0.0 0.0 0.00 0.00 0.00 91 1016.5
20260507093836 53 295 0.0 0.0 0.00 0.00 0.00 91 1016.5
20260507093335 53 295 0.0 0.0 0.00 0.00 0.00 91 1016.6
20260507092832 53 295 0.0 0.0 0.00 0.00 0.00 91 1016.5
20260507092328 53 295 0.0 0.0 0.00 0.00 0.00 90 1016.6
20260507091825 53 295 0.0 0.0 0.00 0.00 0.00 90 1016.6
20260507091322 53 295 0.0 0.0 0.00 0.00 0.00 90 1016.6
20260507090817 53 295 0.0 0.0 0.00 0.00 0.00 90 1016.7
20260507090314 53 295 0.0 0.0 0.00 0.00 0.00 90 1016.6
20260507085811 53 295 0.0 0.0 0.00 0.00 0.00 90 1016.6
20260507085308 54 295 0.0 0.0 0.00 0.00 0.00 90 1016.7
20260507084805 54 295 0.0 0.0 0.00 0.00 0.00 90 1016.7
20260507084301 54 295 0.0 0.0 0.00 0.00 0.00 90 1016.8
20260507083759 54 295 0.0 0.0 0.00 0.00 0.00 90 1016.9
20260507083255 54 295 0.0 0.0 0.00 0.00 0.00 90 1016.9
20260507082751 54 295 0.0 0.0 0.00 0.00 0.00 90 1016.9
20260507082247 54 295 0.0 0.0 0.00 0.00 0.00 90 1017.1
20260507081744 54 295 0.0 0.0 0.00 0.00 0.00 90 1016.9
20260507081240 54 295 0.0 0.0 0.00 0.00 0.00 90 1017.0
20260507080737 54 295 0.0 0.0 0.00 0.00 0.00 89 1017.0
20260507080233 54 295 0.0 0.0 0.00 0.00 0.00 89 1017.2
20260507075728 54 295 0.0 0.0 0.00 0.00 0.00 89 1017.1
20260507075225 54 295 0.0 0.0 0.00 0.00 0.00 90 1017.0
20260507074722 54 295 0.0 0.0 0.00 0.00 0.00 89 1017.1
20260507074220 54 295 0.0 0.0 0.00 0.00 0.00 89 1017.3
20260507073716 55 295 0.0 0.0 0.00 0.00 0.00 88 1017.2
20260507073213 55 295 0.0 0.0 0.00 0.00 0.00 88 1017.4
20260507072710 55 295 0.0 0.0 0.00 0.00 0.00 88 1017.4
20260507072208 55 295 0.0 0.0 0.00 0.00 0.00 88 1017.5
20260507071705 55 295 0.0 0.0 0.00 0.00 0.00 88 1017.4
20260507071201 55 295 0.0 0.0 0.00 0.00 0.00 88 1017.5
20260507070659 55 295 0.0 0.0 0.00 0.00 0.00 89 1017.3
20260507070155 55 295 0.0 0.0 0.00 0.00 0.00 90 1017.3
20260507065651 55 295 0.0 0.0 0.00 0.00 0.00 88 1017.3
20260507065148 56 295 0.0 0.0 0.00 0.00 0.00 88 1017.3
20260507064646 56 295 0.0 0.0 0.00 0.00 0.00 89 1017.4
20260507064144 56 295 0.0 0.0 0.00 0.00 0.00 88 1017.4
20260507063642 56 295 0.0 0.0 0.00 0.00 0.00 88 1017.4
20260507063138 56 295 0.0 0.0 0.00 0.00 0.00 88 1017.3
20260507062635 56 295 0.0 0.0 0.00 0.00 0.00 88 1017.5
20260507062133 56 295 0.0 0.0 0.00 0.00 0.00 88 1017.5
20260507061630 56 295 0.0 0.0 0.00 0.00 0.00 88 1017.7
20260507061128 57 295 0.0 0.0 0.00 0.00 0.00 88 1017.5
20260507060626 57 295 0.0 0.0 0.00 0.00 0.00 88 1017.4
20260507060122 57 295 0.0 0.0 0.00 0.00 0.00 88 1017.5
20260507055618 57 295 0.0 0.0 0.00 0.00 0.00 88 1017.5
20260507055114 57 295 0.0 0.0 0.00 0.00 0.00 88 1017.5
20260507054610 57 295 0.0 0.0 0.00 0.00 0.00 88 1017.7
20260507054107 57 295 0.0 0.0 0.00 0.00 0.00 88 1017.4
20260507053605 58 295 0.0 0.0 0.00 0.00 0.00 86 1017.4
20260507053104 58 295 0.0 0.0 0.00 0.00 0.00 86 1017.4
20260507052601 58 295 0.0 0.0 0.00 0.00 0.00 85 1017.5
20260507052057 59 295 0.0 0.0 0.00 0.00 0.00 85 1017.5
20260507051555 59 295 0.0 0.0 0.00 0.00 0.00 85 1017.3
20260507051052 59 295 0.0 0.9 0.00 0.00 0.00 85 1017.4
20260507050549 59 295 0.0 0.0 0.00 0.00 0.00 84 1017.3
20260507050045 59 295 0.0 0.0 0.00 0.00 0.00 84 1017.3
20260507045542 60 295 0.0 0.9 0.00 0.00 0.00 84 1017.4
20260507045039 60 296 0.0 0.0 0.00 0.00 0.00 83 1017.2
20260507044535 60 296 0.0 1.7 0.00 0.00 0.00 83 1017.4
20260507044032 60 302 0.9 0.9 0.00 0.00 0.00 83 1017.3
20260507043528 60 303 0.9 1.7 0.00 0.00 0.00 82 1017.3
20260507043026 60 306 0.0 1.7 0.00 0.00 0.00 82 1017.3
20260507042522 60 298 0.9 2.6 0.00 0.00 0.00 82 1017.3
20260507042017 60 286 0.9 1.7 0.00 0.00 0.00 82 1017.3
20260507041514 60 296 0.9 1.7 0.00 0.00 0.00 82 1017.0
20260507041011 61 306 0.9 1.7 0.00 0.00 0.00 81 1017.1
20260507040507 61 302 1.7 1.7 0.00 0.00 0.00 81 1017.3
20260507040003 61 304 1.7 1.7 0.00 0.00 0.00 80 1017.1
20260507035500 61 261 1.7 1.7 0.00 0.00 0.00 79 1017.1
20260507034956 61 305 1.7 2.6 0.00 0.00 0.00 78 1017.1
20260507034453 62 302 1.7 1.7 0.00 0.00 0.00 77 1016.9
20260507033951 62 295 1.7 2.6 0.00 0.00 0.00 76 1016.9
20260507033449 62 305 0.9 1.7 0.00 0.00 0.00 76 1017.0
20260507032946 62 267 0.9 1.7 0.00 0.00 0.00 76 1017.0
20260507032443 62 300 1.7 1.7 0.00 0.00 0.00 75 1017.0
20260507031939 62 290 1.7 1.7 0.00 0.00 0.00 74 1016.9
20260507031435 62 296 0.9 1.7 0.00 0.00 0.00 73 1016.7
20260507030932 62 306 0.9 1.7 0.00 0.00 0.00 71 1016.8
20260507030429 62 297 1.7 2.6 0.00 0.00 0.00 71 1016.7
20260507025927 63 293 2.6 2.6 0.00 0.00 0.00 71 1016.5
20260507025424 63 302 1.7 1.7 0.00 0.00 0.00 71 1016.5
20260507024922 63 303 1.7 1.7 0.00 0.00 0.00 70 1016.6
20260507024419 63 311 0.0 0.9 0.00 0.00 0.00 69 1016.5
20260507023914 64 293 1.7 1.7 0.00 0.00 0.00 68 1016.6
20260507023411 64 298 3.5 3.5 0.00 0.00 0.00 67 1016.4
20260507022909 64 278 2.6 2.6 0.00 0.00 0.00 67 1016.4
20260507022405 64 291 0.9 2.6 0.00 0.00 0.00 66 1016.3
20260507021901 64 280 3.5 5.2 0.00 0.00 0.00 64 1016.3
20260507021356 65 300 1.7 3.5 0.00 0.00 0.00 63 1016.4
20260507020854 65 293 0.0 1.7 0.00 0.00 0.00 63 1016.2
20260507020351 65 282 2.6 3.5 0.00 0.00 0.00 62 1016.1
20260507015848 66 275 2.6 3.5 0.00 0.00 0.00 60 1016.2
20260507015346 67 297 1.7 3.5 0.00 0.00 0.00 59 1016.2
20260507014843 67 274 2.6 3.5 0.00 0.00 0.00 58 1016.2
20260507014339 68 293 0.9 1.7 0.00 0.00 0.00 58 1016.1
20260507013836 68 292 3.5 5.2 0.00 0.00 0.00 58 1016.3
20260507013333 68 295 2.6 3.5 0.00 0.00 0.00 57 1016.1
20260507012830 68 296 1.7 3.5 0.00 0.00 0.00 57 1016.0
20260507012326 69 310 3.5 5.2 0.00 0.00 0.00 55 1016.1
20260507011823 68 288 1.7 5.2 0.00 0.00 0.00 56 1015.9
20260507011320 68 293 3.5 3.5 0.00 0.00 0.00 56 1016.2
20260507010820 69 289 3.5 6.1 0.00 0.00 0.00 55 1016.0
20260507010315 69 285 1.7 5.2 0.00 0.00 0.00 54 1016.0
20260507005813 69 280 1.7 2.6 0.00 0.00 0.00 54 1015.9
20260507005310 71 297 0.9 5.2 0.00 0.00 0.00 54 1016.1
20260507004806 70 305 0.9 3.5 0.00 0.00 0.00 53 1016.0
20260507004304 70 267 1.7 5.2 0.00 0.00 0.00 54 1015.9
20260507003800 70 293 1.7 6.1 0.00 0.00 0.00 55 1015.9
20260507003255 71 297 0.9 1.7 0.00 0.00 0.00 52 1016.0
20260507002751 71 303 0.9 3.5 0.00 0.00 0.00 54 1015.8
20260507002247 70 267 3.5 5.2 0.00 0.00 0.00 53 1015.9
20260507001745 71 285 3.5 7.8 0.00 0.00 0.00 54 1015.7
20260507001242 71 271 3.5 6.1 0.00 0.00 0.00 55 1015.7
20260507000738 72 294 3.5 5.2 0.00 0.00 0.00 54 1015.7
20260507000234 71 279 1.7 7.0 0.00 0.00 0.00 54 1015.6
20260506235731 71 311 3.5 3.5 0.00 0.00 0.00 54 1015.6
20260506235226 71 287 3.5 5.2 0.00 0.00 0.00 55 1015.7
20260506234723 71 292 5.2 7.0 0.00 0.00 0.00 54 1015.7
20260506234221 71 301 1.7 7.0 0.00 0.00 0.00 55 1015.5
20260506233718 71 291 2.6 5.2 0.00 0.00 0.00 56 1015.6
20260506233215 71 295 2.6 6.1 0.00 0.00 0.00 55 1015.5
20260506232711 71 296 3.5 3.5 0.00 0.00 0.00 56 1015.7
20260506232206 71 302 0.9 6.1 0.00 0.00 0.00 57 1015.7
20260506231704 72 287 4.3 7.8 0.00 0.00 0.00 54 1015.6
20260506231202 71 325 0.9 6.1 0.00 0.00 0.00 55 1015.6
20260506230658 71 327 3.5 5.2 0.00 0.00 0.00 55 1015.8
20260506230155 71 259 2.6 5.2 0.00 0.00 0.00 55 1015.8
20260506225652 72 309 3.5 7.0 0.00 0.00 0.00 55 1015.7
20260506225149 71 312 1.7 5.2 0.00 0.00 0.00 55 1015.9
20260506224645 71 285 4.3 6.1 0.00 0.00 0.00 56 1015.8
20260506224142 72 298 4.3 8.7 0.00 0.00 0.00 56 1015.9
20260506223638 72 297 0.9 8.7 0.00 0.00 0.00 55 1016.0
20260506223134 72 244 4.3 7.0 0.00 0.00 0.00 54 1016.0
20260506222631 72 300 1.7 7.8 0.00 0.00 0.00 55 1015.8
20260506222127 71 313 5.2 7.0 0.00 0.00 0.00 55 1016.0
20260506221625 71 271 4.3 7.0 0.00 0.00 0.00 55 1016.0
20260506221123 71 307 1.7 3.5 0.00 0.00 0.00 55 1016.0
20260506220619 71 304 7.0 8.7 0.00 0.00 0.00 56 1016.0
20260506220115 71 262 5.2 6.1 0.00 0.00 0.00 56 1016.3
20260506215612 72 246 5.2 7.0 0.00 0.00 0.00 54 1016.2
20260506215107 74 296 3.5 6.1 0.00 0.00 0.00 51 1016.3
20260506214604 72 333 0.0 6.1 0.00 0.00 0.00 55 1016.3
20260506214102 73 312 5.2 7.8 0.00 0.00 0.00 55 1016.2
20260506213600 73 268 3.5 7.8 0.00 0.00 0.00 53 1016.2
20260506213056 72 296 2.6 6.1 0.00 0.00 0.00 55 1016.3
20260506212553 71 294 1.7 5.2 0.00 0.00 0.00 55 1016.3
20260506212048 72 286 3.5 7.0 0.00 0.00 0.00 55 1016.4
20260506211544 72 305 5.2 7.0 0.00 0.00 0.00 54 1016.4
20260506211042 71 286 6.1 7.8 0.00 0.00 0.00 54 1016.6
20260506210538 72 266 4.3 8.7 0.00 0.00 0.00 54 1016.6
20260506210035 71 300 2.6 6.1 0.00 0.00 0.00 55 1016.5
20260506205532 72 290 1.7 7.0 0.00 0.00 0.00 53 1016.5
20260506205027 72 291 5.2 7.0 0.00 0.00 0.00 54 1016.5
20260506204525 72 285 6.1 9.6 0.00 0.00 0.00 54 1016.5
20260506204022 72 273 3.5 7.8 0.00 0.00 0.00 54 1016.6
20260506203520 71 263 3.5 6.1 0.00 0.00 0.00 55 1016.6
20260506203016 72 271 1.7 7.8 0.00 0.00 0.00 54 1016.7
20260506202513 72 274 3.5 7.8 0.00 0.00 0.00 53 1016.7
20260506202010 72 298 4.3 7.8 0.00 0.00 0.00 53 1016.7
20260506201508 71 250 3.5 6.1 0.00 0.00 0.00 53 1016.7
20260506201004 71 306 4.3 7.8 0.00 0.00 0.00 53 1016.8
20260506200500 73 288 4.3 6.1 0.00 0.00 0.00 52 1016.8
20260506195956 73 295 1.7 5.2 0.00 0.00 0.00 51 1016.9
20260506195454 73 227 3.5 7.0 0.00 0.00 0.00 50 1016.6
20260506194950 73 272 4.3 7.0 0.00 0.00 0.00 51 1016.7
20260506194448 73 277 1.7 6.1 0.00 0.00 0.00 51 1016.9
20260506193944 74 296 4.3 6.1 0.00 0.00 0.00 48 1017.0
20260506193442 74 301 3.5 7.8 0.00 0.00 0.00 46 1017.0
20260506192938 73 293 2.6 5.2 0.00 0.00 0.00 48 1017.0
20260506192435 74 274 4.3 6.1 0.00 0.00 0.00 47 1017.0
20260506191932 74 322 0.9 3.5 0.00 0.00 0.00 48 1017.2
20260506191428 74 292 1.7 2.6 0.00 0.00 0.00 47 1017.1
20260506190925 73 314 3.5 7.8 0.00 0.00 0.00 48 1017.3
20260506190422 73 307 3.5 5.2 0.00 0.00 0.00 46 1017.2
20260506185919 74 291 2.6 5.2 0.00 0.00 0.00 44 1017.3
20260506185416 73 293 1.7 3.5 0.00 0.00 0.00 47 1017.2
20260506184913 73 291 3.5 6.1 0.00 0.00 0.00 47 1017.3
20260506184410 73 288 0.9 1.7 0.00 0.00 0.00 46 1017.4
20260506183907 72 306 1.7 3.5 0.00 0.00 0.00 46 1017.5
20260506183402 72 236 0.0 2.6 0.00 0.00 0.00 48 1017.5
20260506182859 73 296 0.9 3.5 0.00 0.00 0.00 46 1017.7
20260506182357 72 252 0.9 3.5 0.00 0.00 0.00 48 1017.6
20260506181854 71 311 1.7 6.1 0.00 0.00 0.00 50 1017.6
20260506181352 71 316 3.5 5.2 0.00 0.00 0.00 50 1017.6
20260506180849 70 281 3.5 5.2 0.00 0.00 0.00 50 1017.7
20260506180345 71 284 3.5 6.1 0.00 0.00 0.00 49 1017.8
20260506175841 71 252 1.7 2.6 0.00 0.00 0.00 50 1017.8
20260506175338 70 98 0.9 7.0 0.00 0.00 0.00 52 1018.1
20260506174835 69 302 1.7 3.5 0.00 0.00 0.00 51 1017.9
20260506174333 69 251 4.3 5.2 0.00 0.00 0.00 53 1017.9
20260506173830 69 199 1.7 5.2 0.00 0.00 0.00 53 1017.8
20260506173327 69 180 1.7 2.6 0.00 0.00 0.00 53 1018.0
20260506172824 69 297 0.9 2.6 0.00 0.00 0.00 55 1018.0
20260506172321 68 180 1.7 2.6 0.00 0.00 0.00 55 1018.1
20260506171818 68 299 0.9 6.1 0.00 0.00 0.00 56 1018.3
20260506171315 68 325 1.7 3.5 0.00 0.00 0.00 57 1018.2
20260506170813 67 268 3.5 6.1 0.00 0.00 0.00 56 1018.0
20260506170308 68 198 2.6 5.2 0.00 0.00 0.00 55 1018.2
20260506165807 66 190 3.5 5.2 0.00 0.00 0.00 58 1018.2
20260506165306 67 282 2.6 3.5 0.00 0.00 0.00 57 1018.1
20260506164801 66 314 0.9 2.6 0.00 0.00 0.00 59 1018.2
20260506164258 66 316 1.7 2.6 0.00 0.00 0.00 58 1018.3
20260506163755 66 116 1.7 1.7 0.00 0.00 0.00 58 1018.3
20260506163249 66 28 1.7 2.6 0.00 0.00 0.00 58 1018.4
20260506162746 64 307 0.9 0.9 0.00 0.00 0.00 61 1018.4
20260506162244 65 309 2.6 3.5 0.00 0.00 0.00 59 1018.4
20260506161741 65 304 0.9 1.7 0.00 0.00 0.00 58 1018.3
20260506161238 64 319 0.9 2.6 0.00 0.00 0.00 60 1018.0
20260506160736 64 321 0.9 2.6 0.00 0.00 0.00 60 1018.2
20260506160232 63 303 0.9 2.6 0.00 0.00 0.00 63 1018.1
20260506155731 63 0 0.0 2.6 0.00 0.00 0.00 64 1018.5
20260506155227 63 108 1.7 2.6 0.00 0.00 0.00 64 1018.2
20260506153335 62 32 0.0 0.9 0.00 0.00 0.00 67 1018.3
20260506152831 62 11 1.7 1.7 0.00 0.00 0.00 66 1018.5
20260506152329 61 35 0.0 0.9 0.00 0.00 0.00 68 1018.3
20260506151828 61 48 1.7 1.7 0.00 0.00 0.00 69 1018.3
20260506151324 60 6 0.0 0.9 0.00 0.00 0.00 71 1018.5
20260506150821 60 42 0.9 1.7 0.00 0.00 0.00 71 1018.3
20260506150318 59 27 0.0 1.7 0.00 0.00 0.00 73 1018.5
20260506145814 59 64 1.7 2.6 0.00 0.00 0.00 73 1018.4